[[{"header":{"parameterUnit":"m.s-1","parameterCategory":1,"la1":30.2991,"la2":30.254,"lo1":-89.0895,"lo2":-89.0444,"dy":0.0017,"dx":0.0017,"nx":28,"ny":28,"refTime":"2024-08-16T03:00:00:Z","depth":0,"parameterNumber":2,"parameterNumberName":"U-component_of_WINDS"},"data":[0,0,0,0,0,0,0,0,0,0,0,0,0,0,0,0,0,0,0,0,0,0,0,0,0,0,0,0,0,0,0,0,0,0,0,0,0,0,0,0,0,0,0,0,0,0,0,0,0,0,0,0,0,0,0,0,0,0,0.311,0.3111,0,0.3138,0.3139,0.3139,0.3157,0.3158,0.3158,0.3158,0.3186,0.3186,0.3187,0,0,0,0,0,0,0,0,0,0,0,0,0,0.3071,0.3072,0.311,0.3111,0.3111,0.3138,0.3139,0.3139,0.3157,0.3158,0.3158,0.3158,0.3185,0.3186,0.3187,0,0,0,0,0,0,0,0,0,0,0,0,0,0.3092,0.3072,0.311,0.3124,0.3125,0.3138,0.3139,0.3139,0.3157,0.3158,0.3158,0.3158,0.3185,0.3186,0.3187,0.3189,0,0,0.319,0.319,0,0,0,0,0,0,0,0,0.3091,0.3094,0.3121,0.3123,0.3124,0.3145,0.3135,0.3156,0.3157,0.3145,0.3158,0.3158,0.3172,0.3174,0.3179,0.319,0.3191,0.319,0.319,0.3191,0.3191,0,0,0,0,0,0,0,0.309,0.3093,0.3121,0.3122,0.3124,0.3127,0.3131,0.3139,0.3157,0.3146,0.3148,0.3151,0.3173,0.3178,0.3179,0.3192,0.319,0.3191,0.3191,0.3192,0.3204,0.3204,0,0,0,0,0,0,0.3086,0.3091,0.3121,0.3122,0.3108,0.3128,0.3132,0.3138,0.3157,0.316,0.3151,0.3151,0.3176,0.3178,0.318,0.3183,0.3191,0.3192,0.3192,0.3205,0.3204,0.3204,0,0,0,0,0,0,0.3085,0.3089,0.3119,0.3107,0.3111,0.3129,0.3135,0.3138,0.3143,0.316,0.3163,0.3152,0.3176,0.3179,0.3186,0.3184,0.3192,0.3193,0.3205,0.3205,0.3204,0.3188,0,0,0,0,0,0,0.3084,0.3088,0.309,0.3107,0.3112,0.3125,0.3135,0.3139,0.3145,0.3147,0.3163,0.3166,0.3177,0.3185,0.3187,0.3185,0.3194,0.3205,0.3205,0.3204,0.3189,0.3187,0.3186,0,0,0,0,0,0.3083,0.3084,0.309,0.3093,0.3114,0.3125,0.3128,0.3141,0.3145,0.3146,0.3156,0.3165,0.3184,0.3185,0.3188,0.3187,0.3205,0.3205,0.3204,0.319,0.3188,0.3186,0,0,0,0,0,0,0.3067,0.3087,0.3093,0.3101,0.3111,0.3128,0.313,0.3138,0.3148,0.3149,0.3164,0.3167,0.3172,0.318,0.3182,0.3189,0.3196,0.3196,0.3183,0.3182,0.318,0.3178,0.3194,0,0,0,0,0,0.3064,0.3072,0.3089,0.3094,0.3098,0.3113,0.3119,0.3127,0.3139,0.3143,0.3154,0.3164,0.3172,0.3178,0.3186,0.319,0.3193,0.319,0.3189,0.3188,0.3187,0.3189,0.3187,0.3203,0.3203,0.3203,0,0,0.3059,0.3071,0.3075,0.3091,0.31,0.3106,0.3117,0.3124,0.3129,0.3144,0.3151,0.316,0.3172,0.3177,0.318,0.3184,0.3184,0.3187,0.3186,0.3186,0.3188,0.3186,0.3185,0.3202,0.3202,0.3202,0,0,0.3052,0.3062,0.3067,0.3075,0.3089,0.3098,0.3099,0.3115,0.3121,0.3129,0.314,0.3145,0.3159,0.3167,0.3173,0.3167,0.3175,0.317,0.3162,0.3163,0.3161,0.316,0.3157,0.3156,0.3169,0.3169,0.3169,0,0.3044,0.3055,0.3068,0.3074,0.308,0.3094,0.3098,0.3105,0.3121,0.3124,0.3128,0.3145,0.3154,0.3161,0.3159,0.3164,0.3165,0.3168,0.3161,0.316,0.3159,0.3156,0.3155,0.3168,0.3169,0.3169,0.3169,0,0.3043,0.305,0.3052,0.3066,0.3073,0.3078,0.3091,0.3095,0.3103,0.3112,0.3118,0.313,0.314,0.3142,0.315,0.315,0.3151,0.3158,0.3165,0.3156,0.3154,0.3153,0.3167,0.3168,0.3168,0.3168,0,0,0.3028,0.3048,0.3049,0.3055,0.307,0.3075,0.308,0.309,0.3093,0.3103,0.3107,0.3117,0.3123,0.3129,0.3138,0.3139,0.3132,0.3145,0.3145,0.3141,0.313,0.3125,0.3124,0.3137,0.3137,0.3137,0.3129,0,0.3024,0.3033,0.3045,0.305,0.3056,0.3068,0.3072,0.3081,0.3089,0.3095,0.3104,0.3111,0.3118,0.3122,0.3123,0.3133,0.313,0.3133,0.314,0.314,0.3136,0.3123,0.3117,0.3109,0.3128,0.3128,0.3128,0,0.302,0.3028,0.3034,0.3047,0.305,0.3053,0.3062,0.3068,0.3078,0.3084,0.309,0.3099,0.3103,0.311,0.3116,0.3118,0.3121,0.3126,0.3126,0.3126,0.3133,0.3122,0.3107,0.3106,0.3127,0.3127,0.3127,0,0.3007,0.302,0.3025,0.303,0.3045,0.3047,0.3053,0.3063,0.3068,0.3076,0.3078,0.3087,0.3091,0.3097,0.3107,0.3111,0.3111,0.3119,0.3115,0.3115,0.3115,0.3114,0.3099,0.3118,0.3118,0.3118,0.3118,0,0.3001,0.3004,0.3019,0.3022,0.3026,0.3038,0.304,0.3048,0.3056,0.306,0.3071,0.3074,0.3088,0.3093,0.3101,0.3103,0.3106,0.311,0.3112,0.3108,0.3108,0.311,0.3111,0.3118,0.3118,0.3118,0.3118,0,0.2988,0.2999,0.3004,0.3018,0.3021,0.3023,0.3034,0.3036,0.3044,0.3049,0.3051,0.3063,0.3069,0.308,0.3089,0.3094,0.3095,0.3099,0.3091,0.3092,0.3088,0.3088,0.3073,0.3071,0.3092,0.3092,0.3091,0,0.2983,0.2985,0.2998,0.3001,0.3007,0.3013,0.3017,0.3028,0.3032,0.3043,0.3044,0.305,0.3056,0.3065,0.3074,0.308,0.3084,0.3079,0.3085,0.3081,0.3083,0.3082,0.3082,0.3077,0.3077,0.3077,0.3076,0,0.2972,0.2977,0.2983,0.299,0.2995,0.3002,0.3008,0.301,0.3023,0.3027,0.3033,0.3037,0.3045,0.3051,0.3059,0.3065,0.3072,0.3074,0.3073,0.307,0.3065,0.3066,0.3086,0.3074,0.3075,0.3075,0.3075,0.3075,0.2963,0.2965,0.2974,0.298,0.2986,0.2991,0.2994,0.3002,0.3007,0.3014,0.302,0.3025,0.3033,0.3044,0.3049,0.3053,0.3056,0.3056,0.3055,0.3055,0.3053,0.3065,0.3054,0.3054,0.3054,0.3054,0.3054,0,0.2952,0.2958,0.2963,0.2972,0.2976,0.2982,0.299,0.2993,0.2997,0.3003,0.3008,0.3014,0.3019,0.3028,0.3034,0.3035,0.3038,0.3036,0.3036,0.3037,0.305,0.3049,0.3033,0.3033,0.3033,0.3033,0.3033,0.3033,0.2947,0.2951,0.2956,0.2961,0.2967,0.2972,0.2975,0.298,0.2985,0.2991,0.2995,0.3001,0.3008,0.3014,0.3019,0.3021,0.3022,0.3019,0.3022,0.3034,0.3036,0.3038,0.3037,0.3019,0.3019,0.3009,0.3008,0.3008]},{"header":{"parameterUnit":"m.s-1","parameterCategory":1,"la1":30.2991,"la2":30.254,"lo1":-89.0895,"lo2":-89.0444,"dy":0.0017,"dx":0.0017,"nx":28,"ny":28,"refTime":"2024-08-16T03:00:00:Z","depth":0,"parameterNumber":3,"parameterNumberName":"V-component_of_WINDS"},"data":[0,0,0,0,0,0,0,0,0,0,0,0,0,0,0,0,0,0,0,0,0,0,0,0,0,0,0,0,0,0,0,0,0,0,0,0,0,0,0,0,0,0,0,0,0,0,0,0,0,0,0,0,0,0,0,0,0,0,3.5225,3.5225,0,3.524,3.5241,3.5241,3.519,3.5189,3.5187,3.5186,3.5201,3.5203,3.5205,0,0,0,0,0,0,0,0,0,0,0,0,0,3.5149,3.5151,3.5225,3.5225,3.5225,3.524,3.5241,3.5241,3.5191,3.5189,3.5187,3.5185,3.5201,3.5203,3.5205,0,0,0,0,0,0,0,0,0,0,0,0,0,3.5175,3.5151,3.5225,3.5202,3.52,3.524,3.5241,3.5241,3.5191,3.5189,3.5187,3.5184,3.52,3.5202,3.5205,3.5268,0,0,3.5213,3.5215,0,0,0,0,0,0,0,0,3.5174,3.5178,3.5205,3.5204,3.5202,3.5211,3.5219,3.525,3.5192,3.5195,3.5186,3.5183,3.5206,3.5208,3.5216,3.5268,3.5269,3.5214,3.5215,3.5217,3.5217,0,0,0,0,0,0,0,3.5172,3.5177,3.5231,3.5206,3.5204,3.519,3.5191,3.5225,3.5213,3.5194,3.5191,3.5193,3.5205,3.5214,3.5216,3.5269,3.5214,3.5216,3.5218,3.5219,3.537,3.5372,0,0,0,0,0,0,3.5173,3.5176,3.523,3.5231,3.5182,3.5193,3.5195,3.521,3.5212,3.5211,3.5195,3.5191,3.521,3.5213,3.5217,3.5287,3.5217,3.5219,3.5221,3.5368,3.537,3.5373,0,0,0,0,0,0,3.5172,3.5179,3.523,3.5203,3.5208,3.5197,3.5215,3.5212,3.5221,3.5213,3.5211,3.5206,3.5208,3.5213,3.5255,3.5287,3.522,3.5223,3.5365,3.5368,3.5372,3.5431,0,0,0,0,0,0,3.517,3.5179,3.5203,3.5204,3.521,3.5269,3.5217,3.5214,3.5226,3.522,3.5223,3.5221,3.5207,3.5251,3.5257,3.529,3.5225,3.5362,3.5366,3.5371,3.5426,3.5436,3.5444,0,0,0,0,0,3.5168,3.522,3.5204,3.5211,3.524,3.5271,3.5274,3.5257,3.5229,3.5252,3.5247,3.5221,3.5283,3.5255,3.5262,3.5296,3.536,3.5365,3.537,3.5422,3.5434,3.5444,0,0,0,0,0,0,3.5223,3.5219,3.5203,3.5256,3.5264,3.5262,3.5291,3.5271,3.5286,3.528,3.5258,3.5259,3.5304,3.5305,3.5274,3.5355,3.5316,3.5323,3.5353,3.5365,3.5374,3.5372,3.5227,0,0,0,0,0,3.5242,3.5268,3.5262,3.531,3.5315,3.5303,3.5315,3.5301,3.5308,3.5311,3.5309,3.5316,3.5337,3.5351,3.537,3.5426,3.5425,3.5452,3.5462,3.547,3.5475,3.5502,3.5514,3.5391,3.539,3.539,0,0,3.5281,3.5282,3.5299,3.5322,3.5326,3.5351,3.5306,3.5336,3.5354,3.5316,3.5354,3.5353,3.536,3.5408,3.5429,3.541,3.5509,3.5476,3.5483,3.5484,3.5509,3.552,3.5531,3.5394,3.5393,3.5393,0,0,3.5364,3.5368,3.5407,3.5412,3.5418,3.541,3.5419,3.542,3.5417,3.5456,3.5426,3.5448,3.5485,3.549,3.5497,3.558,3.5556,3.5587,3.5635,3.5661,3.5671,3.5679,3.5706,3.5717,3.5593,3.5593,3.5593,0,3.5411,3.5449,3.543,3.546,3.547,3.5436,3.5474,3.548,3.5493,3.5499,3.5478,3.5521,3.5524,3.5571,3.5591,3.5599,3.5608,3.5585,3.5671,3.5679,3.5687,3.5712,3.5723,3.5596,3.5596,3.5596,3.5595,0,3.5505,3.5531,3.5562,3.5574,3.5587,3.5622,3.5607,3.5622,3.5607,3.56,3.5638,3.5639,3.5656,3.5667,3.5653,3.5712,3.57,3.5675,3.5635,3.5702,3.5726,3.5736,3.5601,3.56,3.5599,3.5598,0,0,3.5624,3.5623,3.5634,3.5638,3.5642,3.5662,3.5694,3.5711,3.5723,3.5733,3.5758,3.5789,3.5765,3.5774,3.576,3.5783,3.5845,3.5755,3.5755,3.577,3.5908,3.5925,3.5937,3.583,3.5832,3.5833,3.5906,0,3.5703,3.5757,3.574,3.5795,3.5818,3.5785,3.5813,3.5817,3.5812,3.583,3.5823,3.5844,3.5813,3.5817,3.5839,3.5833,3.5872,3.5828,3.5851,3.5852,3.5848,3.5949,3.5968,3.6036,3.5916,3.5917,3.5919,0,3.5803,3.5815,3.5872,3.5869,3.5878,3.5904,3.5916,3.5934,3.5938,3.5932,3.5941,3.5921,3.5951,3.5912,3.5952,3.5922,3.5931,3.5929,3.5931,3.5931,3.5888,3.5949,3.6058,3.6068,3.5933,3.5932,3.5931,0,3.588,3.5911,3.5948,3.5953,3.5952,3.597,3.597,3.5972,3.5982,3.5993,3.5999,3.6014,3.6021,3.6033,3.6017,3.5991,3.6058,3.6019,3.6052,3.6052,3.6066,3.6065,3.6176,3.6076,3.6076,3.6076,3.6076,0,3.5969,3.6005,3.5982,3.6005,3.6043,3.6022,3.606,3.6057,3.6059,3.6079,3.6053,3.6073,3.6051,3.6069,3.6057,3.609,3.6095,3.6089,3.6085,3.609,3.6091,3.6094,3.6088,3.6078,3.6078,3.6077,3.6077,0,3.6062,3.6049,3.6086,3.6082,3.6081,3.6109,3.6104,3.6125,3.6116,3.6143,3.6148,3.6135,3.6154,3.6139,3.6159,3.615,3.6193,3.6184,3.6192,3.6188,3.6221,3.6218,3.6336,3.635,3.6244,3.6245,3.6246,0,3.6118,3.6145,3.6142,3.6153,3.6155,3.6175,3.6184,3.6165,3.6176,3.6181,3.62,3.6217,3.6229,3.6261,3.6253,3.6267,3.6256,3.6296,3.6257,3.6261,3.6253,3.6251,3.6252,3.6303,3.6305,3.6306,3.6307,0,3.6219,3.6211,3.6226,3.6238,3.625,3.6259,3.6265,3.6276,3.6256,3.627,3.6288,3.6298,3.6316,3.6332,3.6343,3.6343,3.6321,3.6319,3.6327,3.6331,3.6334,3.633,3.6211,3.6316,3.6315,3.6314,3.6314,3.6313,3.6294,3.6314,3.6315,3.6331,3.6334,3.634,3.6358,3.6351,3.6367,3.6379,3.6367,3.6389,3.6391,3.6403,3.6405,3.6421,3.6404,3.6417,3.6419,3.6422,3.6426,3.6333,3.6424,3.6423,3.6423,3.6423,3.6423,0,3.6391,3.6389,3.6405,3.6414,3.6427,3.6405,3.641,3.6422,3.6442,3.6445,3.6457,3.6477,3.6492,3.6485,3.6498,3.6512,3.6502,3.6516,3.6514,3.6513,3.6441,3.6432,3.6524,3.6524,3.6524,3.6524,3.6524,3.6524,3.6443,3.6475,3.6467,3.6499,3.6497,3.6518,3.6523,3.6528,3.653,3.6553,3.6565,3.656,3.6559,3.6571,3.6584,3.6581,3.6586,3.6603,3.6597,3.6529,3.6519,3.6509,3.65,3.6605,3.6605,3.6667,3.6668,3.6668]}]]